Home > Weather > Turkmenistan > Ashgabat > Past weeks

Flag for Turkmenistan Weather past 2 weeks in Ashgabat, Turkmenistan

63 °F

More clouds than sun.

Feels Like: 63 °F
Forecast: 50 / 66 °F
Wind: 6 mph from West

Location: Ashgabat

Current Time: Dec 2, 2015 at 12:52:04 PM

Latest Report: Dec 2, 2015 at 12:00 PM

Visibility: N/A

Pressure: 29.95 "Hg

Humidity: 49%

Dew point: 43 °F

Location of AshgabatLocation

Historic Weather in Ashgabat — Graph


Ashgabat temperature yesterday

Maximum temperature yesterday: 61 °F (at 2:30 PM)
Minimum temperature yesterday: 37 °F (at 7:00 AM)
Average temperature yesterday: 49 °F

Past Weeks' High & Low Weather Summary

High77 °F (Nov 27, 1:30 PM)100% (Nov 18, 12:30 PM)30.45 "Hg (Nov 18, 12:30 PM)
Low34 °F (Nov 26, 5:30 AM)11% (Nov 27, 1:30 PM)29.74 "Hg (Nov 17, 4:00 PM)
Average47 °F82%30.17 "Hg
* Reported Nov 17 11:00 AM — Dec 2 11:30 AM, Ashgabat, Weather by CustomWeather, © 2015

Note: Actual official high and low records may vary slightly from our data, if they occured in-between our weather recording intervals... More about our weather records


Ashgabat weather history for previous 24 hours

Time TempWeatherWind HumidityBarometerVisibility
11:30 AM
Wed, Dec 2
64 °FMore clouds than sun.No wind40%29.95 "Hg5 mi
11:00 AM63 °FBroken clouds.3 mph45%29.95 "Hg6 mi
10:30 AM63 °FBroken clouds.7 mph45%29.95 "HgN/A
10:00 AM64 °FBroken clouds.8 mph34%29.95 "Hg6 mi
8:30 AM59 °FMostly cloudy.7 mph48%29.95 "Hg6 mi
8:00 AM57 °FMostly cloudy.6 mph55%29.95 "Hg6 mi
7:30 AM57 °FMostly cloudy.6 mph55%29.98 "HgN/A
7:00 AM57 °FMostly cloudy.3 mph51%29.95 "HgN/A
6:00 AM57 °FPassing clouds.7 mph55%29.95 "HgN/A
5:00 AM55 °FMostly cloudy.5 mph59%29.95 "HgN/A
3:00 AM61 °FMostly cloudy.6 mph42%29.95 "HgN/A
2:00 AM54 °FMostly cloudy.5 mph72%29.95 "Hg6 mi
1:00 AM54 °FPartly cloudy.1 mph72%29.95 "Hg6 mi
12:00 AM54 °FPartly cloudy.7 mph72%29.95 "Hg4 mi
11:00 PM
Tue, Dec 1
50 °FPartly cloudy.2 mph82%29.98 "Hg2 mi
10:00 PM52 °FFog.3 mph77%29.98 "Hg2 mi
9:00 PM50 °FPartly cloudy.3 mph82%30.01 "Hg2 mi
8:00 PM50 °FPassing clouds.1 mph82%30.01 "Hg3 mi
7:00 PM54 °FPartly cloudy.6 mph72%29.98 "Hg4 mi
6:00 PM55 °FMostly cloudy.5 mph67%29.98 "Hg3 mi
5:00 PM59 °FBroken clouds.8 mph55%29.98 "Hg5 mi
4:30 PM59 °FBroken clouds.8 mph55%30.01 "Hg1 mi
4:00 PM61 °FBroken clouds.9 mph48%30.01 "Hg2 mi
3:30 PM61 °FScattered clouds.9 mph48%30.01 "Hg2 mi
3:00 PM61 °FScattered clouds.8 mph48%30.01 "Hg1 mi
2:30 PM61 °FScattered clouds.9 mph48%30.04 "Hg1 mi
2:00 PM59 °FScattered clouds.9 mph48%30.04 "Hg1 mi
1:00 PM57 °FPassing clouds.9 mph51%30.07 "Hg6 mi
12:30 PM57 °FHaze.8 mph55%30.09 "Hg2 mi
Weather by CustomWeather, © 2015

See weather overviewHow to use our weather pages